STARLINK-33677, 63410

Orbit data source: Space-Track

STARLINK-33677, 63410 is a payload satellite owned by SpaceX/Seattle (US) in LEO that was launched on Mon, 31 Mar 2025 UTC via an FALCON 9 launch vehicle from the Air Force Eastern Test Range (AFETR). Payload-class satellites include a variety of spacecraft equipped with specific instruments for various scientific and technological missions. These include communications satellites like Starlink; space stations such as the ISS; scientific satellites like the Hubble; Earth observation satellites from companies like Planet Labs, Umbra, and HawkEye 360; GPS; miniature CubeSats for education and research; and military/defense satellites.

Loading next visibility...
Identifier
63410, 2025-065M
Orbit
LEO
Country
Flag of USUS
Related business
Manufacturer
SpaceX/Seattle
Mission
Operational Commercial Communications
Bus & Motor
STARLINK V2MO, Unknown motor
Mass
575 kg wet, ~530 kg dry
Launch date (UTC)
2025-03-31 (1 year ago)
Launch vehicle
FALCON 9
Launch site
Air Force Eastern Test Range (AFETR)
Object type
Payload
Rocket body
Debris
Shape & HBR
Box + 2 Pan, 17.7 m
Radar Cross Section
36.964 m², Large (>1 m²)

Expand to show TLE details & history
Last TLE update: 1 day ago

TLE from 1 day ago
0 STARLINK-33677
1 63410U 25065M   26170.51574382  .00006734  00000-0  25389-3 0  9993
2 63410  42.9985 251.9482 0001484 272.4396  87.6285 15.27594403 68419
Epoch: 2026-06-19T12:22Z
TLE epoch observation values (Epoch: 2026-06-19T12:22:40.266Z)
Latitude
-0.00005°
Longitude
158.53677°
Altitude
482.739 km
Speed
7.626 km/s
True Right ascension
16h 47m 47s
True Declination
0° 00' 00"
Sunlit
Object was in full shadow at epoch
Visualization orbit readout
Latitude
Unknown
Longitude
Unknown
Altitude
Unknown
Speed
Unknown
Apparent Right ascension
Unknown
Apparent Declination
Unknown
Sunlit
N/A
Visualization observer readout
Local Sidereal Time
07:17:48
Azimuth
Unknown
Elevation
Unknown
Doppler factor
Unknown
Orbital elements
Apogee altitude
485.97 km
Perigee altitude
483.933 km
Semi-major axis
6,863.088 km
Eccentricity
0.00015
Inclination
42.9985°
RAAN
251.9482°
Arg. of periapsis
272.4396°
True anomaly
87.64549°
Mean anomaly
87.6285°
Eccentric anomaly
87.637°
Mean motion
3.81737 °/min
Orbital period
94.31 mins
BSTAR
0.00025389
Loading maneuver chart data...
Computing Atmospheric mass density...
Loading historical data...
Loading historical data...
Loading historical data...
Loading historical data...
Loading historical data...
Loading historical data...
Loading historical data...

Documentation

Showing up to 5 results
|